ISS (ZARYA) 1 25544U 98067A 26126.84466763 .00005913 00000+0 11489-3 0 9994 2 25544 51.6305 144.7453 0007432 30.9733 329.1692 15.49124105565348 POISK 1 36086U 09060A 26126.84466763 .00005913 00000+0 11489-3 0 9992 2 36086 51.6305 144.7453 0007432 30.9733 329.1692 15.49124105565127 CSS (TIANHE) 1 48274U 21035A 26126.89526562 .00017607 00000+0 18863-3 0 9995 2 48274 41.4662 213.2545 0005027 345.5436 14.5260 15.63411084286711 ISS (NAUKA) 1 49044U 21066A 26126.84466763 .00005913 00000+0 11489-3 0 9990 2 49044 51.6305 144.7453 0007432 30.9733 329.1692 15.49124105565169 FREGAT DEB 1 49271U 11037PF 26126.35495682 .00008086 00000+0 12582-1 0 9994 2 49271 51.6379 127.5808 0934399 191.1915 166.6778 12.41267360219859 CSS (WENTIAN) 1 53239U 22085A 26126.89526562 .00017607 00000+0 18863-3 0 9998 2 53239 41.4662 213.2545 0005027 345.5436 14.5260 15.63411084286257 CSS (MENGTIAN) 1 54216U 22143A 26126.89526562 .00017607 00000+0 18863-3 0 9999 2 54216 41.4662 213.2545 0005027 345.5436 14.5260 15.63411084286983 TIANZHOU-9 1 64786U 25149A 26126.89526562 .00017607 00000+0 18863-3 0 9991 2 64786 41.4662 213.2545 0005027 345.5436 14.5260 15.63411084286706 HRC MONOBLOCK CAMERA 1 66052U 98067XR 26126.47413369 .00050449 00000+0 43675-3 0 9992 2 66052 51.6247 132.4976 0005000 20.2981 339.8213 15.68635664 31446 HTV-X1 1 66174U 25241A 26126.55045763 .00013090 00000+0 14507-3 0 9992 2 66174 51.6335 150.9491 0007467 31.3509 328.7929 15.63317465 29836 SZ-21 MODULE 1 66515U 25246C 26126.92714127 .00031846 00000+0 22678-3 0 9991 2 66515 41.4722 203.6256 0002580 50.4475 309.6596 15.73136268 27233 SHENZHOU-22 1 66645U 25272A 26126.89526562 .00017607 00000+0 18863-3 0 9994 2 66645 41.4662 213.2545 0005027 345.5436 14.5260 15.63411084287006 SOYUZ-MS 28 1 66664U 25275A 26126.84466763 .00005913 00000+0 11489-3 0 9993 2 66664 51.6305 144.7453 0007432 30.9733 329.1692 15.49124105565403 DUPLEX 1 66906U 98067XS 26126.50407271 .00028249 00000+0 35060-3 0 9991 2 66906 51.6263 139.4678 0005648 26.4506 333.6774 15.59771420 24141 ISS OBJECT XT 1 66907U 98067XT 26126.24892272 .02170678 58496-2 15167-2 0 9998 2 66907 51.6081 125.5563 0003353 42.3285 317.7990 16.17069766 24300 ISS OBJECT XU 1 66908U 98067XU 26126.23181042 .02350108 90057-2 15475-2 0 9993 2 66908 51.6095 125.4384 0002136 64.9307 295.1932 16.18675841 24302 ISS OBJECT XW 1 66910U 98067XW 26126.37027393 .00635596 19053-3 12373-2 0 9996 2 66910 51.6119 126.3954 0007554 45.9588 314.2042 15.99624033 24304 ISS OBJECT XY 1 66912U 98067XY 26126.31123901 .00146529 00000+0 85826-3 0 9999 2 66912 51.6221 132.8760 0007823 37.8236 322.3312 15.77318362 24206 KNACKSAT-2 1 67683U 98067XZ 26126.33918814 .00035738 00000+0 49824-3 0 9999 2 67683 51.6273 144.3710 0012719 43.0910 317.1075 15.56471135 13751 CORAL 1 67684U 98067YA 26126.31027391 .00097889 00000+0 96878-3 0 9995 2 67684 51.6252 141.9188 0016191 38.5425 321.6723 15.64894031 13785 GXIBA-1 1 67685U 98067YB 26126.50322835 .00039784 00000+0 53345-3 0 9990 2 67685 51.6273 143.2160 0014612 41.2424 318.9669 15.57436073 13788 UITMSAT-2 1 67686U 98067YC 26126.26110843 .00051623 00000+0 64364-3 0 9997 2 67686 51.6260 143.8509 0011550 23.2686 336.8827 15.59299539 13754 HMU-SAT2 1 67687U 98067YD 26126.32346839 .00039209 00000+0 53496-3 0 9991 2 67687 51.6282 144.2716 0010909 24.2110 335.9392 15.57032315 13677 LEOPARD 1 67688U 98067YE 26126.28367000 .00044266 00000+0 57158-3 0 9998 2 67688 51.6277 144.0047 0011200 23.3894 336.7606 15.58444651 13679 CREW DRAGON 12 1 67796U 26031A 26126.84466763 .00005913 00000+0 11489-3 0 9991 2 67796 51.6305 144.7453 0007432 30.9733 329.1692 15.49124105565602 PROGRESS-MS 33 1 68319U 26058A 26126.84466763 .00005913 00000+0 11489-3 0 9992 2 68319 51.6305 144.7453 0007432 30.9733 329.1692 15.49124105 6794 CYGNUS NG-24 1 68689U 26079A 26126.84466763 .00005913 00000+0 11489-3 0 9995 2 68689 51.6305 144.7453 0007432 30.9733 329.1692 15.49124105 4084 PROGRESS-MS 34 1 68837U 26093A 26126.84466763 .00005913 00000+0 11489-3 0 9996 2 68837 51.6305 144.7453 0007432 30.9733 329.1692 15.49124105 1581